Weather History for KBJI - February, 2014

Change the Weather History Date:

Monday, February 24, 2014

  Actual Average Record
Temperature  
Mean Temperature -5 °F -  
Max Temperature 4 °F 26 °F 54 °F (1976)
Min Temperature -14 °F 1 °F -34 °F (1955)
Degree Days  
Heating Degree Days 70    
Moisture  
Dew Point -11 °F    
Average Humidity 73    
Maximum Humidity 82    
Minimum Humidity 58    
Precipitation  
Precipitation 0.00 in - - ()
Sea Level Pressure  
Sea Level Pressure 30.23 in    
Wind  
Wind Speed 11 mph (WNW)    
Max Wind Speed 15 mph    
Max Gust Speed 18 mph    
Visibility 10 miles    
Events      
Averages and records for this station are not official NWS values.
T = Trace of Precipitation, MM = Missing Value Source: NWS Daily Summary

Daily Weather History Graph

Daily Weather History Graph

Search for Another Location

Airport or City:

Trip Planner

Search our weather history database for the weather conditions in past years. The results will help you decide how hot, cold, wet, or windy it might be!

Date:

Astronomy

Feb. 24, 2014 Rise Set
Actual Time 7:09 AM CST 5:57 PM CST
Civil Twilight 6:38 AM CST 6:28 PM CST
Nautical Twilight 6:02 AM CST 7:03 PM CST
Astronomical Twilight 5:27 AM CST 7:39 PM CST
Moon 3:22 AM CST (2/24) 12:46 PM CST (2/24)
Length of Visible Light 11h 50m
Length of Day
10h 47m
Waning Crescent, 28% of the Moon is Illuminated
Feb 24
Waning Crescent
Mar 1
New
Mar 8
First Quarter
Mar 16
Full
Mar 23
Last Quarter

Hourly Weather History & Observations

Time (CST) Temp. Windchill Dew Point Humidity Pressure Visibility Wind Dir Wind Speed Gust Speed Precip Events Conditions
12:10 AM -2.7 °F -21.4 °F -8.5 °F 76% 30.19 in 10.0 mi WNW 12.7 mph 18.4 mph N/A   Clear
12:29 AM -3.1 °F -21.0 °F -8.5 °F 78% 30.18 in 10.0 mi WNW 11.5 mph - N/A   Clear
12:49 AM -3.6 °F -23.3 °F -8.9 °F 78% 30.19 in 10.0 mi WNW 13.8 mph - N/A   Clear
1:10 AM -4.0 °F -23.7 °F -9.4 °F 78% 30.19 in 10.0 mi WNW 13.8 mph - N/A   Clear
1:29 AM -4.9 °F -24.1 °F -10.1 °F 78% 30.19 in 10.0 mi WNW 12.7 mph - N/A   Clear
1:49 AM -4.9 °F -24.1 °F -9.9 °F 79% 30.19 in 10.0 mi WNW 12.7 mph - N/A   Clear
2:10 AM -5.3 °F -25.4 °F -10.3 °F 79% 30.19 in 10.0 mi WNW 13.8 mph - N/A   Clear
2:29 AM -5.8 °F -26.0 °F -10.7 °F 79% 30.19 in 10.0 mi WNW 13.8 mph - N/A   Clear
2:49 AM -6.2 °F -25.7 °F -11.2 °F 79% 30.19 in 10.0 mi WNW 12.7 mph - N/A   Clear
3:10 AM -6.7 °F -26.4 °F -11.4 °F 80% 30.20 in 10.0 mi WNW 12.7 mph - N/A   Clear
3:29 AM -6.7 °F -26.4 °F -11.6 °F 79% 30.19 in 10.0 mi WNW 12.7 mph - N/A   Clear
3:49 AM -7.4 °F -26.4 °F -12.3 °F 79% 30.20 in 10.0 mi WNW 11.5 mph - N/A   Clear
4:10 AM -8.0 °F -27.1 °F -12.8 °F 79% 30.20 in 10.0 mi WNW 11.5 mph - N/A   Clear
4:29 AM -8.5 °F -26.8 °F -13.2 °F 80% 30.20 in 10.0 mi WNW 10.4 mph - N/A   Clear
4:49 AM -9.2 °F -27.7 °F -14.1 °F 79% 30.20 in 10.0 mi WNW 10.4 mph - N/A   Clear
5:10 AM -9.8 °F -27.3 °F -14.3 °F 81% 30.20 in 10.0 mi WNW 9.2 mph - N/A   Clear
5:29 AM -9.8 °F -27.3 °F -14.3 °F 81% 30.21 in 10.0 mi WNW 9.2 mph - N/A   Clear
5:49 AM -10.8 °F -27.4 °F -15.3 °F 80% 30.21 in 10.0 mi West 8.1 mph - N/A   Clear
6:10 AM -10.8 °F -27.4 °F -15.3 °F 80% 30.21 in 10.0 mi West 8.1 mph - N/A   Clear
6:29 AM -11.7 °F -29.7 °F -15.9 °F 82% 30.22 in 10.0 mi West 9.2 mph - N/A   Clear
6:49 AM -12.1 °F -27.5 °F -16.4 °F 81% 30.22 in 10.0 mi West 6.9 mph - N/A   Clear
7:09 AM -12.3 °F -26.1 °F -16.8 °F 80% 30.22 in 10.0 mi WNW 5.8 mph - N/A   Clear
7:29 AM -14.1 °F -28.3 °F -18.2 °F 82% 30.22 in 10.0 mi WNW 5.8 mph - N/A   Clear
7:49 AM -11.6 °F -28.3 °F -16.1 °F 80% 30.22 in 10.0 mi WNW 8.1 mph - N/A   Clear
8:10 AM -10.5 °F -26.9 °F -15.5 °F 78% 30.22 in 10.0 mi WNW 8.1 mph - N/A   Clear
8:29 AM -9.9 °F -27.5 °F -15.2 °F 78% 30.23 in 10.0 mi West 9.2 mph - N/A   Clear
8:49 AM -8.5 °F -25.7 °F -13.9 °F 77% 30.24 in 10.0 mi WNW 9.2 mph - N/A   Clear
9:10 AM -7.1 °F -23.9 °F -13.0 °F 75% 30.24 in 10.0 mi WNW 9.2 mph - N/A   Clear
9:29 AM -6.2 °F -23.9 °F -12.1 °F 75% 30.24 in 10.0 mi WNW 10.4 mph - N/A   Clear
9:49 AM -4.9 °F -23.2 °F -11.2 °F 74% 30.24 in 10.0 mi WNW 11.5 mph - N/A   Clear
10:10 AM -3.8 °F -19.9 °F -10.5 °F 73% 30.24 in 10.0 mi NW 9.2 mph - N/A   Clear
10:29 AM -2.0 °F -18.7 °F -9.4 °F 71% 30.24 in 10.0 mi WNW 10.4 mph - N/A   Clear
10:49 AM -0.8 °F -17.2 °F -8.5 °F 70% 30.25 in 10.0 mi NW 10.4 mph - N/A   Clear
11:10 AM 0.9 °F -16.8 °F -8.0 °F 66% 30.25 in 10.0 mi NW 12.7 mph - N/A   Clear
11:29 AM 1.6 °F -16.7 °F -8.0 °F 64% 30.26 in 10.0 mi WNW 13.8 mph - N/A   Clear
11:49 AM 1.9 °F -13.8 °F -7.6 °F 64% 30.25 in 10.0 mi NW 10.4 mph - N/A   Clear
12:10 PM 3.0 °F -11.5 °F -7.6 °F 61% 30.25 in 10.0 mi WNW 9.2 mph - N/A   Clear
12:29 PM 3.9 °F -12.2 °F -6.9 °F 61% 30.25 in 10.0 mi West 11.5 mph - N/A   Clear
12:49 PM 4.5 °F -12.3 °F -6.5 °F 60% 30.25 in 10.0 mi West 12.7 mph - N/A   Clear
1:10 PM 4.8 °F -11.1 °F -6.5 °F 60% 30.24 in 10.0 mi WNW 11.5 mph - N/A   Clear
1:29 PM 4.5 °F -12.3 °F -7.1 °F 59% 30.25 in 10.0 mi WNW 12.7 mph 16.1 mph N/A   Clear
1:49 PM 4.1 °F -14.1 °F -7.6 °F 58% 30.25 in 10.0 mi West 15.0 mph - N/A   Mostly Cloudy
2:10 PM 3.7 °F -13.9 °F -7.8 °F 59% 30.25 in 10.0 mi West 13.8 mph - N/A   Mostly Cloudy
2:29 PM 3.7 °F -13.9 °F -7.6 °F 59% 30.25 in 10.0 mi West 13.8 mph - N/A   Overcast
2:49 PM 3.2 °F -15.3 °F -7.8 °F 60% 30.25 in 10.0 mi NW 15.0 mph - N/A   Overcast
3:09 PM 2.8 °F -12.7 °F -7.6 °F 62% 30.25 in 10.0 mi WNW 10.4 mph 15.0 mph N/A   Scattered Clouds
3:29 PM 3.2 °F -13.9 °F -7.4 °F 61% 30.25 in 10.0 mi West 12.7 mph - N/A   Clear
3:50 PM 2.7 °F -13.8 °F -8.0 °F 61% 30.24 in 10.0 mi West 11.5 mph - N/A   Scattered Clouds
4:10 PM 2.3 °F -14.2 °F -8.3 °F 61% 30.24 in 10.0 mi WNW 11.5 mph 17.3 mph N/A   Scattered Clouds
4:29 PM 1.9 °F -13.8 °F -8.3 °F 62% 30.24 in 10.0 mi West 10.4 mph - N/A   Clear
4:49 PM 1.2 °F -16.4 °F -8.1 °F 65% 30.24 in 10.0 mi West 12.7 mph - N/A   Clear
5:09 PM 0.3 °F -18.3 °F -8.1 °F 68% 30.24 in 10.0 mi West 13.8 mph - N/A   Clear
5:29 PM -0.2 °F -18.9 °F -8.3 °F 69% 30.24 in 10.0 mi WNW 13.8 mph - N/A   Scattered Clouds
5:50 PM -1.3 °F -17.8 °F -8.7 °F 71% 30.24 in 10.0 mi West 10.4 mph - N/A   Mostly Cloudy
6:10 PM -2.2 °F -19.9 °F -9.2 °F 72% 30.24 in 10.0 mi WNW 11.5 mph - N/A   Mostly Cloudy
6:29 PM -2.6 °F -18.4 °F -9.4 °F 73% 30.24 in 10.0 mi West 9.2 mph - N/A   Mostly Cloudy
6:49 PM -3.3 °F -22.8 °F -9.4 °F 75% 30.25 in 10.0 mi West 13.8 mph 18.4 mph N/A   Overcast
7:09 PM -4.2 °F -23.2 °F -10.3 °F 75% 30.26 in 10.0 mi West 12.7 mph 18.4 mph N/A   Scattered Clouds
7:29 PM -4.9 °F -21.3 °F -10.5 °F 77% 30.25 in 10.0 mi West 9.2 mph - N/A   Clear
7:50 PM -5.3 °F -21.7 °F -10.7 °F 77% 30.25 in 10.0 mi West 9.2 mph - N/A   Clear
8:09 PM -5.8 °F -24.4 °F -11.2 °F 77% 30.25 in 10.0 mi West 11.5 mph - N/A   Clear
8:29 PM -6.0 °F -22.6 °F -11.4 °F 77% 30.25 in 10.0 mi West 9.2 mph - N/A   Clear
8:50 PM -7.6 °F -23.4 °F -12.6 °F 79% 30.25 in 10.0 mi West 8.1 mph - N/A   Clear
9:10 PM -8.5 °F -23.2 °F -13.2 °F 80% 30.25 in 10.0 mi West 6.9 mph - N/A   Clear
9:29 PM -8.9 °F -26.2 °F -13.2 °F 81% 30.25 in 10.0 mi West 9.2 mph - N/A   Clear
9:49 PM -8.0 °F -27.1 °F -12.5 °F 81% 30.24 in 10.0 mi West 11.5 mph - N/A   Clear
10:09 PM -8.3 °F -25.5 °F -13.2 °F 79% 30.24 in 10.0 mi West 9.2 mph - N/A   Clear
10:29 PM -8.5 °F -24.5 °F -13.5 °F 79% 30.24 in 10.0 mi West 8.1 mph - N/A   Clear
10:50 PM -9.0 °F -26.4 °F -14.3 °F 78% 30.23 in 10.0 mi West 9.2 mph - N/A   Clear
11:10 PM -9.4 °F -26.8 °F -14.6 °F 78% 30.22 in 10.0 mi West 9.2 mph - N/A   Clear
11:29 PM -9.8 °F -26.1 °F -15.2 °F 77% 30.22 in 10.0 mi West 8.1 mph - N/A   Clear
11:49 PM -9.9 °F -26.3 °F -15.3 °F 77% 30.22 in 10.0 mi West 8.1 mph - N/A   Clear